Regional Weather Roundup
Issued by NWS Goodland, KS

Home | Current Version | Previous Version | Graphics & Text | Print | Product List | Glossary On
Versions: 1 2 3 4 5 6 7 8 9 10 11 12 13 14 15 16 17 18 19 20 21 22 23 24 25 26 27 28 29 30 31 32 33 34 35 36 37 38 39 40 41 42 43 44 45 46 47 48 49 50
000
ASUS43 KGLD 210908
RWRGLD

GOODLAND FORECAST AREA HOURLY WEATHER ROUNDUP
NATIONAL WEATHER SERVICE GOODLAND KS
300 AM MDT TUE OCT 21 2014

...OFFICIAL OBSERVATIONS...

CITY           SKY/WX    TMP DP  RH WIND       PRES   REMARKS
GOODLAND KS    CLEAR     48  40  73 S10       30.09F
HILL CITY KS   CLEAR     50  42  74 W5        30.08S
IMPERIAL NEB   CLEAR     53  38  56 S9        30.04F
MCCOOK NEB     CLEAR     46  38  73 CALM      30.06F
AKRON CO       CLEAR     54  48  80 S15       30.04F
BURLINGTON CO  CLEAR     50  45  83 S13       30.08F
LIMON CO       CLEAR     43  42  97 SE7       30.10F
$$

...UNOFFICIAL OBSERVATIONS...

CITY           SKY/WX    TMP DP  RH WIND       PRES   REMARKS
COLBY KS       CLEAR     43  39  87 S3        30.09F
GOVE KS          N/A     43  32  65 MISG        N/A
NORTON KS      CLEAR     45  37  76 SW8       30.06F
SHARON SPRINGS   N/A     49  43  80 S7          N/A
TRENTON NEB      N/A     49  32  52 SW7         N/A
KIT CARSON CO    N/A     43  37  80 CALM        N/A
YUMA CO          N/A     50  43  75 SE12        N/A
$$



USA.gov is the U.S. government's official web portal to all federal, state and local government web resources and services.